カタログに戻る

STARLINK-32323

運用中通信VLEO
NORAD 61677·PAYLOAD·🇺🇸 United States

打ち上げ Oct 26, 2024 から Cape Canaveral Space Force Station

Loading…

次のパス (今後24時間)

TLE

最新Source: CelesTrak SupGP

元期: Sep 14, 2026, 15:24 UTC

1 61677C 24193S   26257.64215278 -.00000405  00000+0 -11981-4 0  2574
2 61677  53.1579 288.8553 0001239  82.4989 123.9369 15.34383042    10

AllMySatでSTARLINK-32323をリアルタイム追跡

Download on the App Store